Terug naar catalogus

STARLINK-35928

ActiefCommunicatieVLEO
NORAD 66528·PAYLOAD·🇺🇸 United States

Gelanceerd Nov 19, 2025 vanaf Cape Canaveral Space Force Station

Loading…

Volgende Passages (komende 24 uur)

TLE

VersSource: CelesTrak SupGP

Epoch: Sep 15, 2026, 03:57 UTC

1 66528C 25265N   26258.16506944 -.00008693  00000+0 -31489-3 0  2588
2 66528  42.9999 287.7168 0001401 263.4784  76.8331 15.27581319    11

Volg STARLINK-35928 in realtime met AllMySat

Download on the App Store